Theta_e
307 307 308 308 312 315 318 319 319 322 319 320 319 315 309 305 308 308 309 309 309 307 303 311 312 313 313 310 311 311 314 315 315 315 315 314 312 314 313 314 315 315 318 321 324
306 306 306 307 307 309 313 317 319 318 320 318 320 316 307 307 308 307 309 311 309 306 303 313 312 312 312 312 311 310 310 313 313 312 312 311 311 310 311 312 314 315 316 320 323
306 306 305 306 306 307 308 313 316 317 320 320 319 316 306 307 308 310 309 311 309 305 311 310 311 312 312 312 312 311 311 310 311 311 311 311 311 311 310 311 313 315 315 319 322
306 306 306 305 306 305 306 308 314 315 319 319 319 314 306 308 311 310 305 303 303 308 309 309 309 309 309 308 310 311 311 311 311 310 310 310 310 310 311 310 311 312 314 315 322
305 305 305 305 304 306 306 305 312 315 317 318 317 308 305 308 309 308 305 309 309 306 307 307 306 307 307 307 307 307 309 309 309 308 308 309 309 309 310 311 312 311 314 315 319
305 304 304 305 304 304 304 306 310 316 315 317 315 307 306 309 309 309 306 306 307 305 306 306 306 307 307 306 306 307 307 307 307 307 307 308 308 308 309 310 311 311 312 314 316
304 304 303 302 303 302 302 309 314 316 315 316 313 307 305 308 306 306 307 306 308 309 307 307 307 306 306 306 306 307 307 307 306 308 308 308 307 307 308 310 310 312 312 312 315
303 303 302 302 302 303 306 311 313 315 316 313 307 307 307 307 306 305 303 305 307 307 307 307 307 307 306 306 306 306 306 306 307 308 308 308 308 306 308 310 310 311 312 312 314
302 302 302 301 302 303 310 313 311 311 313 308 306 307 308 308 308 306 303 303 305 305 306 306 306 306 306 306 305 307 301 306 307 309 310 310 309 307 307 308 310 311 311 312 313
302 301 302 300 301 304 311 311 308 305 304 306 305 306 305 305 304 303 303 305 306 306 306 306 306 307 307 306 302 301 302 307 309 309 310 311 310 310 309 310 309 310 311 312 313
302 301 301 301 300 302 304 305 305 304 308 309 307 307 306 305 305 305 305 305 306 306 305 307 306 307 305 306 306 306 306 307 307 308 311 311 313 312 310 311 312 313 315 313 316
301 301 301 300 300 301 302 304 304 305 307 308 307 305 305 305 306 306 307 308 307 306 306 308 307 306 306 307 308 309 311 309 309 309 312 312 313 312 311 311 313 316 318 320 321
301 301 300 299 300 302 302 304 303 305 307 308 307 306 305 306 308 308 307 308 307 307 307 306 307 308 308 308 310 310 312 310 310 311 311 312 314 312 312 315 316 316 318 319 321
301 301 300 299 301 303 303 303 304 306 308 308 307 306 306 306 309 308 308 308 309 309 309 309 310 310 310 310 311 314 312 312 313 315 312 312 306 313 313 313 312 317 319 318 320
300 300 299 299 302 303 303 304 304 304 309 307 307 306 306 309 309 309 308 307 308 309 309 306 310 310 312 313 312 313 312 314 313 314 317 314 318 315 314 314 311 315 319 318 318
302 300 300 300 301 301 302 304 305 305 307 307 307 308 308 309 310 309 309 308 308 309 309 309 309 309 312 312 312 313 315 314 315 317 317 311 316 315 314 312 312 314 315 315 316
302 302 301 301 303 303 302 305 299 302 304 307 307 308 309 310 309 308 309 308 309 313 311 310 312 312 311 312 314 314 315 319 319 318 321 316 315 313 312 311 311 313 311 313 314
303 302 301 303 303 302 304 300 306 307 305 306 308 309 310 311 310 310 310 309 309 311 312 313 308 313 313 312 316 317 316 317 322 320 319 316 315 315 310 310 311 310 309 311 311
302 302 302 302 302 302 303 304 307 306 307 309 310 311 311 311 309 310 310 313 313 312 315 314 315 315 313 314 315 315 318 315 320 318 320 317 314 310 308 310 310 310 308 308 309
301 301 302 302 302 303 302 308 306 304 308 310 310 310 310 311 310 311 313 312 313 313 311 315 316 314 315 315 315 314 314 316 317 322 323 320 318 318 311 310 309 308 307 306 306
302 301 302 301 303 303 304 307 307 309 309 311 310 311 309 312 312 314 311 312 312 313 312 312 316 316 315 315 315 315 314 313 314 315 318 317 318 315 314 311 309 307 305 305 304
302 302 302 303 304 303 306 306 306 310 310 310 309 311 311 312 313 314 314 314 313 312 313 312 313 311 315 313 312 313 313 311 312 314 311 312 315 312 311 309 307 305 304 304 305
302 302 302 303 302 304 307 309 310 310 310 310 311 310 311 313 313 313 313 312 312 312 311 310 311 311 312 310 311 313 311 311 313 309 311 311 313 308 306 306 306 305 304 304 304
303 303 303 305 305 305 307 309 310 310 310 310 310 311 311 313 312 313 313 312 312 311 310 310 309 310 310 312 312 313 312 311 309 308 310 310 310 308 306 305 304 304 305 305 304
305 301 304 301 305 305 307 310 310 311 310 309 309 310 311 313 312 312 312 312 311 311 310 309 309 306 310 313 311 310 311 311 311 310 309 310 311 309 307 305 305 305 305 305 305
305 305 306 305 307 307 307 309 310 310 309 310 310 309 309 309 309 311 311 310 311 309 311 309 307 310 306 310 309 308 308 310 311 311 309 309 311 308 309 308 306 306 306 305 305
306 306 307 307 305 305 307 309 310 310 309 309 309 309 309 308 307 308 310 309 309 309 308 310 307 304 307 309 310 308 307 309 311 309 311 312 310 308 308 307 306 307 306 306 305
Wind_Speed
17 17 16 17 23 29 20 17 17 18 16 15 12 11 10 5 5 8 7 4 8 7 4 4 3 4 2 1 5 7 2 2 4 6 7 22 17 33 31 25 30 24 20 11 7
20 20 16 18 18 16 25 16 17 17 19 17 15 10 6 5 6 13 5 9 11 9 8 5 3 4 2 2 3 5 3 4 6 8 10 17 20 23 18 26 21 30 22 14 6
21 18 19 19 19 19 16 20 21 18 24 20 13 9 4 4 5 5 6 13 13 10 11 4 6 5 4 6 6 5 5 5 16 23 22 17 21 22 18 12 18 21 30 21 15
18 20 18 21 21 21 19 21 20 10 25 22 13 10 5 6 2 6 6 8 10 11 8 6 4 2 2 3 9 7 12 14 19 26 26 17 23 22 23 20 29 29 29 29 10
19 18 19 20 21 21 23 16 24 17 25 18 13 8 9 5 7 8 6 8 11 11 8 5 5 5 4 3 8 4 7 14 17 16 17 21 19 20 29 25 31 32 29 20 20
17 17 19 20 21 22 23 20 23 14 28 17 15 11 11 4 4 11 7 8 7 6 8 5 3 5 2 2 2 7 14 14 16 21 20 16 21 22 23 29 31 32 31 27 22
17 17 18 21 21 23 21 12 16 22 28 18 13 11 12 9 8 9 11 7 12 6 6 4 5 3 4 5 8 13 8 13 16 17 11 22 22 19 25 29 33 31 34 31 28
18 16 18 20 21 21 14 11 17 31 22 15 13 14 5 12 10 9 9 12 11 9 9 9 4 4 4 6 7 5 5 3 1 4 11 12 22 18 26 24 31 35 31 31 33
18 16 17 16 19 17 9 15 16 20 18 16 19 9 2 11 16 11 10 9 4 4 3 3 4 6 5 4 4 3 4 7 8 3 5 4 16 8 27 26 27 29 32 34 34
18 15 15 14 14 16 3 16 18 17 21 17 13 4 6 9 13 14 10 9 9 6 3 7 3 1 1 3 4 4 3 5 8 3 11 15 21 20 27 13 29 26 28 33 32
15 13 12 11 11 10 6 19 15 5 10 6 13 1 16 17 15 13 11 11 8 6 5 6 2 9 10 9 7 5 10 15 18 16 14 14 15 17 16 15 17 19 10 21 20
13 12 11 8 10 10 10 5 2 3 3 11 1 9 12 13 7 10 10 7 8 5 4 2 9 11 10 9 9 14 17 21 17 16 7 10 17 14 6 11 16 10 7 4 5
13 10 9 7 8 6 1 4 4 0 4 6 5 6 7 10 7 16 13 6 5 3 6 6 4 6 4 6 13 17 15 17 16 11 11 11 9 5 5 2 6 9 7 4 2
11 7 6 4 3 5 7 4 5 1 2 4 6 4 8 6 4 11 9 4 2 3 1 6 3 4 6 10 9 13 12 16 16 7 4 8 3 2 2 5 7 14 7 2 3
8 5 3 1 5 4 3 1 6 4 3 5 7 9 10 3 15 3 7 4 3 3 1 5 2 3 9 7 6 7 13 10 5 6 3 3 1 2 6 3 5 8 7 4 7
8 7 6 3 3 2 2 2 9 0 4 3 4 6 5 4 3 5 3 2 2 2 4 7 4 2 4 8 12 11 5 3 2 1 2 3 4 1 2 2 4 4 8 6 6
12 8 9 7 3 5 2 11 4 5 3 4 5 7 6 4 3 5 4 3 3 2 2 2 3 2 3 7 2 1 3 2 3 2 0 0 1 1 5 2 6 4 7 11 13
12 18 15 10 9 6 12 4 7 2 2 4 7 8 4 8 1 4 3 1 4 1 2 3 4 2 3 4 3 4 3 2 1 2 2 4 3 2 5 7 4 8 7 14 15
32 24 18 11 6 8 5 4 3 3 1 7 8 3 3 4 4 2 2 0 2 2 1 2 3 4 8 6 3 2 2 4 1 2 2 1 1 1 6 4 7 10 12 13 17
38 29 16 10 6 6 5 3 1 2 5 8 4 5 5 5 3 0 2 0 1 2 4 1 2 5 5 3 8 7 4 0 1 2 3 2 3 3 3 5 7 9 12 13 15
24 10 9 6 6 4 2 3 3 4 11 4 3 4 6 4 3 3 2 1 3 2 7 2 2 5 2 3 3 3 5 3 2 2 3 2 3 3 6 8 8 10 8 10 16
18 5 8 8 4 3 1 2 7 7 9 2 4 4 3 4 3 2 3 3 10 4 3 6 2 3 3 4 4 3 6 1 4 5 4 4 3 4 8 9 12 11 10 9 12
8 9 9 2 2 1 4 4 3 4 4 4 2 3 2 3 4 3 3 2 2 2 2 4 3 3 8 5 6 4 7 4 2 3 4 4 2 2 9 12 14 16 15 14 12
6 3 1 2 3 2 3 2 2 5 4 3 4 3 1 3 1 3 1 2 2 1 3 1 3 3 4 5 4 5 8 12 4 4 1 1 8 6 6 7 10 12 13 13 10
3 3 4 2 4 5 2 3 3 4 7 8 6 5 2 4 4 3 1 3 3 3 2 4 2 3 4 1 4 5 5 10 9 2 4 6 3 5 7 8 11 12 12 11 8
5 4 3 4 4 2 4 4 4 4 6 6 5 6 10 5 4 3 2 3 0 5 2 3 1 2 4 3 5 3 9 8 8 8 8 6 3 7 15 14 15 16 12 9 4
8 2 2 5 4 4 5 5 5 2 6 7 1 5 7 6 12 13 5 3 2 1 3 2 3 3 3 3 3 5 4 4 3 4 1 2 2 5 4 8 15 14 13 10 6
Wind_Direction
322 320 320 308 259 256 260 256 270 261 256 263 285 295 315 293 250 261 255 192 214 233 203 151 96 95 32 213 237 263 238 238 247 246 270 289 299 298 305 300 304 304 296 266 242
319 322 320 317 313 286 257 251 266 257 244 260 270 297 314 266 265 259 173 225 234 228 168 123 161 190 180 204 206 171 213 236 245 288 295 299 303 315 322 312 317 316 314 271 252
316 320 314 306 310 310 291 254 250 252 240 254 266 279 275 245 307 259 175 206 233 222 168 146 196 156 207 240 233 220 226 265 288 294 292 298 300 304 298 299 310 307 311 313 257
304 311 319 314 311 311 302 267 236 230 238 240 242 251 220 213 212 183 177 170 165 163 147 141 163 151 216 223 225 240 256 266 277 279 284 285 291 289 284 284 292 303 302 316 258
306 306 309 316 316 308 313 283 230 232 222 220 221 217 183 200 225 207 191 162 158 155 150 177 218 223 208 255 338 248 249 272 285 303 305 302 289 277 281 297 296 292 292 300 303
304 310 314 314 316 311 307 285 226 240 216 225 220 191 178 230 148 180 190 192 179 177 161 184 179 309 302 287 297 311 324 310 306 293 283 287 284 288 287 289 286 283 286 294 303
306 307 312 317 314 318 311 272 227 193 201 221 216 174 186 194 201 190 171 187 177 192 181 195 248 247 328 323 298 322 314 308 278 272 274 276 270 265 280 275 275 284 277 283 288
320 312 313 320 319 323 310 262 206 192 201 198 163 153 196 176 197 200 174 167 185 201 214 230 267 296 299 294 310 290 291 274 173 218 243 220 271 254 254 263 267 273 276 278 277
318 310 312 323 322 324 318 196 157 162 172 156 150 141 243 186 199 199 185 173 169 196 231 243 250 246 256 262 309 223 242 258 300 259 277 258 287 290 247 254 267 261 263 264 271
311 307 310 328 327 346 73 166 135 127 121 117 127 182 194 193 163 172 166 194 178 176 225 243 221 261 202 161 238 222 241 271 281 290 305 285 277 274 266 269 256 257 265 255 261
304 299 301 320 319 323 39 103 99 123 177 165 181 187 136 142 151 164 181 177 157 190 205 187 185 233 222 219 246 274 275 276 271 278 291 273 276 275 253 285 298 232 265 245 264
300 297 297 312 308 327 314 345 141 150 170 158 144 93 137 140 136 157 161 164 183 202 207 178 243 231 225 232 243 267 270 264 278 276 263 273 277 264 219 247 249 280 252 275 240
295 300 295 309 321 6 119 224 38 313 74 158 187 149 149 170 168 169 172 204 196 227 202 195 223 149 206 266 271 264 258 268 260 285 261 256 283 255 243 242 312 294 296 325 201
297 279 287 326 22 62 80 135 173 22 127 104 174 169 167 154 85 158 172 186 234 240 297 247 271 257 282 274 250 277 243 259 259 260 241 170 246 141 30 352 14 1 24 16 180
274 263 250 139 107 99 123 251 226 241 118 145 114 157 164 164 141 146 199 182 210 215 110 257 324 321 294 250 198 247 288 288 243 224 270 212 328 353 24 19 357 6 39 59 119
236 218 225 168 173 193 81 195 166 101 77 74 133 154 145 191 110 142 183 196 214 278 211 267 324 286 251 292 258 257 268 205 344 238 258 203 205 86 321 310 303 1 37 62 88
224 182 156 114 114 128 117 144 66 74 284 131 152 148 160 152 143 204 172 200 163 292 308 316 202 245 230 283 254 135 299 247 177 191 7 272 50 96 348 334 297 89 44 80 86
163 137 130 88 89 131 149 52 61 64 187 220 141 143 177 158 233 169 189 304 230 187 280 339 349 229 171 226 278 241 232 210 306 137 105 346 357 27 331 64 76 91 84 87 85
129 120 115 87 88 89 53 47 33 206 212 144 141 118 128 216 137 184 183 195 96 117 283 347 307 274 213 232 242 353 291 193 221 64 95 126 123 112 32 75 77 75 75 71 86
116 116 109 94 77 66 61 26 8 267 315 144 156 173 159 167 144 179 88 292 91 164 155 274 301 246 272 241 244 209 304 260 298 85 75 31 35 43 57 81 72 60 57 64 72
100 71 98 95 93 33 60 24 312 30 145 210 197 110 145 140 87 136 88 240 202 244 191 292 275 294 259 256 289 326 301 229 244 153 135 88 27 47 92 112 99 74 69 85 85
80 76 112 116 39 43 3 178 217 240 209 258 60 81 95 97 109 118 139 237 212 233 223 222 240 295 279 290 265 276 271 118 98 329 49 91 11 119 111 110 113 112 106 108 100
68 83 154 354 101 359 276 257 17 29 10 30 59 50 131 131 102 137 134 257 268 246 290 347 335 352 336 349 347 0 342 348 96 62 12 107 176 131 121 137 145 142 137 129 122
108 92 223 308 253 176 249 54 36 343 1 46 45 340 13 97 325 117 129 257 263 272 234 314 34 150 166 219 248 353 347 5 60 74 260 88 149 182 162 150 149 144 132 122 112
84 152 201 214 257 247 298 76 69 13 344 26 24 6 356 95 86 77 49 323 274 277 280 128 76 35 357 46 59 28 358 12 32 22 108 175 99 171 172 168 163 146 139 131 125
104 142 199 284 302 345 55 20 44 16 36 11 73 44 65 81 48 36 333 52 288 321 347 14 180 74 2 66 80 44 14 8 30 26 78 137 132 179 177 161 156 165 164 154 129
93 91 310 343 352 53 3 35 6 67 33 44 200 70 37 356 337 316 36 50 10 28 334 77 112 63 276 336 353 2 349 16 58 32 73 111 269 139 144 160 171 171 171 171 182